,,PA_Meas_PMT16A,,PR_Meas_QMR101_102,,RH_Meas_QMH101,,SR_Meas_QMS101,,TA_Meas_QMH101,,GenWind,,GenWind,
time,status,PA,status,PR,status,RH,status,SR,status,TA,status,DirAvg,status,SpdAvg,
2010-12-24, 00:00:04,VALID,916.397,VALID,0,VALID,92.9142,VALID,0,VALID,17.2479,VALID,121,VALID,0.719141,
2010-12-24, 00:01:04,VALID,916.377,VALID,0,VALID,93.4859,VALID,0,VALID,17.2479,VALID,121,VALID,0.717578,
2010-12-24, 00:02:04,VALID,916.366,VALID,0,VALID,93.7604,VALID,0,VALID,17.2674,VALID,121,VALID,1.01289,
2010-12-24, 00:03:04,VALID,916.367,VALID,0,VALID,93.7147,VALID,0,VALID,17.2479,VALID,121,VALID,0.957422,
2010-12-24, 00:04:04,VALID,916.333,VALID,0,VALID,94.0043,VALID,0,VALID,17.2674,VALID,121,VALID,1.02031,
2010-12-24, 00:05:04,VALID,916.359,VALID,0,VALID,94.0653,VALID,0,VALID,17.2882,VALID,121,VALID,1.04258,
2010-12-24, 00:06:04,VALID,916.335,VALID,0,VALID,94.1721,VALID,0,VALID,17.3064,VALID,121,VALID,1.10117,
2010-12-24, 00:07:04,VALID,916.31,VALID,0,VALID,94.1187,VALID,0,VALID,17.3259,VALID,121,VALID,0.952344,
2010-12-24, 00:08:04,VALID,916.321,VALID,0,VALID,94.073,VALID,0,VALID,17.3259,VALID,121,VALID,0.802734,
2010-12-24, 00:09:04,VALID,916.324,VALID,0,VALID,93.8443,VALID,0,VALID,17.3246,VALID,121,VALID,0.880859,
2010-12-24, 00:10:04,VALID,916.323,VALID,0,VALID,93.4859,VALID,0,VALID,17.3064,VALID,121,VALID,0.723047,
2010-12-24, 00:11:04,VALID,916.269,VALID,0,VALID,93.5698,VALID,0,VALID,17.2674,VALID,121,VALID,0.654688,
2010-12-24, 00:12:04,VALID,916.277,VALID,0,VALID,93.5927,VALID,0,VALID,17.2479,VALID,121,VALID,0.697266,
2010-12-24, 00:13:04,VALID,916.24,VALID,0,VALID,93.7604,VALID,0,VALID,17.2298,VALID,121,VALID,0.747656,
2010-12-24, 00:14:04,VALID,916.209,VALID,0,VALID,93.829,VALID,0,VALID,17.1895,VALID,121,VALID,0.726953,
2010-12-24, 00:15:04,VALID,916.201,VALID,0,VALID,93.9586,VALID,0,VALID,17.2077,VALID,121,VALID,0.817187,
2010-12-24, 00:16:04,VALID,916.227,VALID,0,VALID,93.9052,VALID,0,VALID,17.2271,VALID,121,VALID,0.874609,
2010-12-24, 00:17:04,VALID,916.205,VALID,0,VALID,93.9052,VALID,0,VALID,17.2285,VALID,121,VALID,1.0043,
2010-12-24, 00:18:04,VALID,916.178,VALID,0,VALID,93.6308,VALID,0,VALID,17.209,VALID,121,VALID,0.867969,
2010-12-24, 00:19:04,VALID,916.155,VALID,0,VALID,93.951,VALID,0,VALID,17.2479,VALID,121,VALID,1.03945,
2010-12-24, 00:20:04,VALID,916.167,VALID,0,VALID,93.9205,VALID,0,VALID,17.2882,VALID,121,VALID,0.944141,
2010-12-24, 00:21:04,VALID,916.153,VALID,0,VALID,93.7756,VALID,0,VALID,17.2856,VALID,121,VALID,0.913281,
2010-12-24, 00:22:04,VALID,916.175,VALID,0,VALID,93.4631,VALID,0,VALID,17.3454,VALID,121,VALID,0.948047,
2010-12-24, 00:23:04,VALID,916.145,VALID,0,VALID,93.1581,VALID,0,VALID,17.3649,VALID,121,VALID,0.922656,
2010-12-24, 00:24:04,VALID,916.159,VALID,0,VALID,93.1124,VALID,0,VALID,17.3454,VALID,121,VALID,0.818359,
2010-12-24, 00:25:04,VALID,916.168,VALID,0,VALID,93.3945,VALID,0,VALID,17.3259,VALID,121,VALID,0.808203,
2010-12-24, 00:26:04,VALID,916.168,VALID,0,VALID,93.4555,VALID,0,VALID,17.2869,VALID,121,VALID,0.702734,
2010-12-24, 00:27:04,VALID,916.142,VALID,0,VALID,93.4021,VALID,0,VALID,17.2479,VALID,121,VALID,0.588672,
2010-12-24, 00:28:04,VALID,916.145,VALID,0,VALID,93.6308,VALID,0,VALID,17.209,VALID,121,VALID,0.525781,
2010-12-24, 00:29:04,VALID,916.171,VALID,0,VALID,93.7375,VALID,0,VALID,17.1895,VALID,121,VALID,0.461719,
2010-12-24, 00:30:04,VALID,916.108,VALID,0,VALID,93.5774,VALID,0,VALID,17.1505,VALID,121,VALID,0.476953,
2010-12-24, 00:31:04,VALID,916.11,VALID,0,VALID,93.6765,VALID,0,VALID,17.1102,VALID,121,VALID,0.157813,
2010-12-24, 00:32:04,VALID,916.077,VALID,0,VALID,93.1886,VALID,0.107441,VALID,17.0713,VALID,121,VALID,0.159375,
2010-12-24, 00:33:04,VALID,916.077,VALID,0,VALID,93.2801,VALID,0,VALID,17.1115,VALID,121,VALID,0.645703,
2010-12-24, 00:34:04,VALID,916.086,VALID,0,VALID,93.6384,VALID,0,VALID,17.1102,VALID,121,VALID,0.775781,
2010-12-24, 00:35:04,VALID,916.055,VALID,0,VALID,93.646,VALID,0.107441,VALID,17.0894,VALID,121,VALID,0.723437,
2010-12-24, 00:36:04,VALID,916.046,VALID,0,VALID,93.6003,VALID,0,VALID,17.1492,VALID,121,VALID,0.601172,
2010-12-24, 00:37:04,VALID,916.05,VALID,0,VALID,93.2496,VALID,0,VALID,17.2077,VALID,121,VALID,0.620313,
2010-12-24, 00:38:04,VALID,916.054,VALID,0,VALID,92.4949,VALID,0,VALID,17.2271,VALID,121,VALID,0.425781,
2010-12-24, 00:39:04,VALID,916.027,VALID,0,VALID,91.8545,VALID,0,VALID,17.1882,VALID,121,VALID,0.364062,
2010-12-24, 00:40:04,VALID,916.027,VALID,0,VALID,91.6945,VALID,0,VALID,17.1687,VALID,121,VALID,0.360156,
2010-12-24, 00:41:04,VALID,916.043,VALID,0,VALID,91.359,VALID,0,VALID,17.1297,VALID,121,VALID,0.513672,
2010-12-24, 00:42:04,VALID,916.063,VALID,0,VALID,91.1151,VALID,0,VALID,17.1102,VALID,121,VALID,0.269922,
2010-12-24, 00:43:04,VALID,916.022,VALID,0,VALID,90.368,VALID,0,VALID,17.0907,VALID,121,VALID,0.208203,
2010-12-24, 00:44:04,VALID,916.003,VALID,0,VALID,91.0998,VALID,0,VALID,17.0128,VALID,121,VALID,0.949219,
2010-12-24, 00:45:04,VALID,916.042,VALID,0,VALID,92.2738,VALID,0,VALID,17.0336,VALID,121,VALID,1.06328,
2010-12-24, 00:46:04,VALID,915.988,VALID,0,VALID,92.7846,VALID,0,VALID,16.9933,VALID,121,VALID,0.918359,
2010-12-24, 00:47:04,VALID,916.003,VALID,0,VALID,93.181,VALID,0,VALID,16.9738,VALID,121,VALID,0.854297,
2010-12-24, 00:48:04,VALID,915.991,VALID,0,VALID,93.9967,VALID,0.107441,VALID,16.9933,VALID,121,VALID,1.02422,
2010-12-24, 00:49:04,VALID,915.966,VALID,0,VALID,94.3474,VALID,0,VALID,16.9738,VALID,121,VALID,0.746875,
2010-12-24, 00:50:04,VALID,915.969,VALID,0,VALID,94.4999,VALID,0.107441,VALID,16.9933,VALID,121,VALID,1.01055,
2010-12-24, 00:51:04,VALID,915.996,VALID,0,VALID,94.4694,VALID,0.107441,VALID,16.9738,VALID,121,VALID,0.398828,
2010-12-24, 00:52:04,VALID,915.987,VALID,0,VALID,94.1873,VALID,0,VALID,16.9543,VALID,121,VALID,0.544922,
2010-12-24, 00:53:04,VALID,915.967,VALID,0,VALID,94.1034,VALID,0,VALID,16.9543,VALID,121,VALID,0.695703,
2010-12-24, 00:54:04,VALID,915.968,VALID,0,VALID,94.0272,VALID,0,VALID,16.9154,VALID,121,VALID,0.619531,
2010-12-24, 00:55:04,VALID,915.957,VALID,0,VALID,94.1949,VALID,0,VALID,16.9543,VALID,121,VALID,0.792578,
2010-12-24, 00:56:04,VALID,915.964,VALID,0,VALID,93.951,VALID,0,VALID,16.9154,VALID,121,VALID,0.467969,
2010-12-24, 00:57:04,VALID,915.926,VALID,0,VALID,93.7451,VALID,0,VALID,16.9349,VALID,121,VALID,0.934766,
2010-12-24, 00:58:04,VALID,915.925,VALID,0,VALID,93.425,VALID,0.107441,VALID,16.9543,VALID,121,VALID,1.2168,
2010-12-24, 00:59:04,VALID,915.959,VALID,0,VALID,92.9981,VALID,0,VALID,16.9543,VALID,121,VALID,0.982031,
2010-12-24, 01:00:04,VALID,915.893,VALID,0,VALID,93.0133,VALID,0,VALID,16.9738,VALID,121,VALID,0.914063,
2010-12-24, 01:01:04,VALID,915.907,VALID,0,VALID,92.6779,VALID,0.107441,VALID,16.9349,VALID,121,VALID,0.864844,
2010-12-24, 01:02:04,VALID,915.915,VALID,0,VALID,92.6397,VALID,0,VALID,16.9362,VALID,121,VALID,0.690234,
2010-12-24, 01:03:04,VALID,915.886,VALID,0,VALID,92.7693,VALID,0,VALID,16.8959,VALID,121,VALID,0.75625,
2010-12-24, 01:04:04,VALID,915.879,VALID,0,VALID,92.6321,VALID,0,VALID,16.8764,VALID,121,VALID,0.577344,
2010-12-24, 01:05:04,VALID,915.898,VALID,0,VALID,93.1276,VALID,0,VALID,16.8751,VALID,121,VALID,1.02656,
2010-12-24, 01:06:04,VALID,915.867,VALID,0,VALID,93.2268,VALID,0,VALID,16.9349,VALID,121,VALID,0.621094,
2010-12-24, 01:07:04,VALID,915.848,VALID,0,VALID,93.0057,VALID,0,VALID,16.9556,VALID,121,VALID,0.644922,
2010-12-24, 01:08:04,VALID,915.847,VALID,0,VALID,93.0057,VALID,0,VALID,16.9738,VALID,121,VALID,0.636328,
2010-12-24, 01:09:04,VALID,915.82,VALID,0,VALID,93.0743,VALID,0,VALID,17.0128,VALID,121,VALID,0.586328,
2010-12-24, 01:10:04,VALID,915.832,VALID,0,VALID,93.0285,VALID,0,VALID,17.0726,VALID,121,VALID,0.747656,
2010-12-24, 01:11:04,VALID,915.835,VALID,0,VALID,92.9066,VALID,0,VALID,17.0713,VALID,121,VALID,0.417578,
2010-12-24, 01:12:04,VALID,915.831,VALID,0,VALID,92.7998,VALID,0,VALID,17.0713,VALID,121,VALID,0.610156,
2010-12-24, 01:13:04,VALID,915.846,VALID,0,VALID,92.7617,VALID,0,VALID,17.0726,VALID,121,VALID,0.823047,
2010-12-24, 01:14:04,VALID,915.842,VALID,0,VALID,92.8837,VALID,0,VALID,17.0726,VALID,121,VALID,0.737109,
2010-12-24, 01:15:04,VALID,915.818,VALID,0,VALID,92.9752,VALID,0,VALID,17.0531,VALID,126,VALID,0.796094,
2010-12-24, 01:16:04,VALID,915.832,VALID,0,VALID,93.3945,VALID,0,VALID,17.0141,VALID,126,VALID,0.815625,
2010-12-24, 01:17:04,VALID,915.814,VALID,0,VALID,93.5317,VALID,0,VALID,16.9751,VALID,126,VALID,0.762109,
2010-12-24, 01:18:04,VALID,915.81,VALID,0,VALID,93.6003,VALID,0,VALID,16.9154,VALID,126,VALID,0.846875,
2010-12-24, 01:19:04,VALID,915.771,VALID,0,VALID,93.7833,VALID,0.107441,VALID,16.8764,VALID,126,VALID,0.711719,
2010-12-24, 01:20:04,VALID,915.778,VALID,0,VALID,94.1187,VALID,0.107441,VALID,16.8777,VALID,126,VALID,0.920313,
2010-12-24, 01:21:04,VALID,915.78,VALID,0,VALID,94.294,VALID,0,VALID,16.8582,VALID,126,VALID,0.915625,
2010-12-24, 01:22:04,VALID,915.787,VALID,0,VALID,94.4999,VALID,0.107441,VALID,16.8192,VALID,126,VALID,1.04375,
2010-12-24, 01:23:04,VALID,915.812,VALID,0,VALID,94.538,VALID,0.107441,VALID,16.7595,VALID,126,VALID,0.888672,
2010-12-24, 01:24:04,VALID,915.823,VALID,0,VALID,94.4389,VALID,0,VALID,16.74,VALID,126,VALID,0.76875,
2010-12-24, 01:25:04,VALID,915.791,VALID,0,VALID,94.1644,VALID,0,VALID,16.74,VALID,126,VALID,1.19297,
2010-12-24, 01:26:04,VALID,915.791,VALID,0,VALID,93.7909,VALID,0,VALID,16.7608,VALID,126,VALID,1.29492,
2010-12-24, 01:27:04,VALID,915.8,VALID,0,VALID,93.3868,VALID,0,VALID,16.7998,VALID,126,VALID,1.51094,
2010-12-24, 01:28:04,VALID,915.791,VALID,0,VALID,93.2877,VALID,0,VALID,16.7998,VALID,126,VALID,1.1918,
2010-12-24, 01:29:04,VALID,915.758,VALID,0,VALID,93.4707,VALID,0,VALID,16.7803,VALID,126,VALID,1.12188,
2010-12-24, 01:30:04,VALID,915.77,VALID,0,VALID,93.5927,VALID,0.107441,VALID,16.74,VALID,126,VALID,1.17578,
2010-12-24, 01:31:04,VALID,915.743,VALID,0,VALID,93.5851,VALID,0,VALID,16.7413,VALID,126,VALID,0.942578,
2010-12-24, 01:32:04,VALID,915.735,VALID,0,VALID,93.2725,VALID,0,VALID,16.7023,VALID,126,VALID,0.986719,
2010-12-24, 01:33:04,VALID,915.712,VALID,0,VALID,92.6931,VALID,0.107441,VALID,16.7011,VALID,126,VALID,1.10117,
2010-12-24, 01:34:04,VALID,915.719,VALID,0,VALID,91.8622,VALID,0.107441,VALID,16.7413,VALID,126,VALID,0.955859,
2010-12-24, 01:35:04,VALID,915.717,VALID,0,VALID,90.9931,VALID,0.107441,VALID,16.7205,VALID,126,VALID,1.33633,
2010-12-24, 01:36:04,VALID,915.683,VALID,0,VALID,90.5509,VALID,0,VALID,16.7608,VALID,126,VALID,0.909766,
2010-12-24, 01:37:04,VALID,915.683,VALID,0,VALID,89.7581,VALID,0.107441,VALID,16.74,VALID,126,VALID,1.42695,
2010-12-24, 01:38:04,VALID,915.647,VALID,0,VALID,89.6819,VALID,0,VALID,16.7803,VALID,126,VALID,0.915234,
2010-12-24, 01:39:04,VALID,915.63,VALID,0,VALID,89.1177,VALID,0.107441,VALID,16.8387,VALID,126,VALID,1.32773,
2010-12-24, 01:40:04,VALID,915.63,VALID,0,VALID,89.3312,VALID,0,VALID,16.8582,VALID,126,VALID,1.23633,
2010-12-24, 01:41:04,VALID,915.594,VALID,0,VALID,89.3388,VALID,0,VALID,16.8374,VALID,126,VALID,1.15352,
2010-12-24, 01:42:04,VALID,915.583,VALID,0,VALID,89.255,VALID,0,VALID,16.8582,VALID,126,VALID,0.983594,
2010-12-24, 01:43:04,VALID,915.546,VALID,0,VALID,89.537,VALID,0,VALID,16.8387,VALID,126,VALID,1.06797,
2010-12-24, 01:44:04,VALID,915.524,VALID,0,VALID,89.8267,VALID,0,VALID,16.7985,VALID,126,VALID,1.25273,
2010-12-24, 01:45:04,VALID,915.476,VALID,0,VALID,90.3451,VALID,0,VALID,16.8192,VALID,126,VALID,1.20352,
2010-12-24, 01:46:04,VALID,915.449,VALID,0,VALID,90.7415,VALID,0.107441,VALID,16.7803,VALID,126,VALID,1.30469,
2010-12-24, 01:47:04,VALID,915.419,VALID,0,VALID,90.8635,VALID,0,VALID,16.7205,VALID,126,VALID,1.21523,
2010-12-24, 01:48:04,VALID,915.41,VALID,0,VALID,90.9702,VALID,0,VALID,16.7218,VALID,126,VALID,1.32656,
2010-12-24, 01:49:04,VALID,915.379,VALID,0,VALID,90.8406,VALID,0.107441,VALID,16.6828,VALID,126,VALID,1.1125,
2010-12-24, 01:50:04,VALID,915.369,VALID,0,VALID,91.1303,VALID,0,VALID,16.6036,VALID,126,VALID,1.30703,
2010-12-24, 01:51:04,VALID,915.329,VALID,0,VALID,90.9702,VALID,0.107441,VALID,16.6244,VALID,126,VALID,1.24063,
2010-12-24, 01:52:04,VALID,915.303,VALID,0,VALID,90.1012,VALID,0,VALID,16.6841,VALID,126,VALID,1.46797,
2010-12-24, 01:53:05,VALID,915.299,VALID,0,VALID,89.3541,VALID,0.107441,VALID,16.7205,VALID,126,VALID,1.16211,
2010-12-24, 01:54:05,VALID,915.243,VALID,0,VALID,89.2397,VALID,0.107441,VALID,16.7998,VALID,126,VALID,1.29531,
2010-12-24, 01:55:05,VALID,915.27,VALID,0,VALID,88.8357,VALID,0,VALID,16.8374,VALID,125,VALID,1.44961,
2010-12-24, 01:56:05,VALID,915.25,VALID,0,VALID,88.6527,VALID,0.107441,VALID,16.8569,VALID,126,VALID,1.28242,
2010-12-24, 01:57:05,VALID,915.273,VALID,0,VALID,88.7747,VALID,0.107441,VALID,16.8582,VALID,125,VALID,1.06758,
2010-12-24, 01:58:05,VALID,915.272,VALID,0,VALID,88.7823,VALID,0.107441,VALID,16.7985,VALID,125,VALID,1.26367,
2010-12-24, 01:59:05,VALID,915.301,VALID,0,VALID,88.8585,VALID,0,VALID,16.7803,VALID,125,VALID,0.995703,
2010-12-24, 02:00:05,VALID,915.28,VALID,0,VALID,89.0872,VALID,0.107441,VALID,16.7803,VALID,125,VALID,0.940234,
2010-12-24, 02:01:05,VALID,915.226,VALID,0,VALID,89.3998,VALID,0.107441,VALID,16.7608,VALID,125,VALID,0.858594,
2010-12-24, 02:02:05,VALID,915.223,VALID,0,VALID,89.6666,VALID,0.107441,VALID,16.7413,VALID,125,VALID,0.894531,
2010-12-24, 02:03:05,VALID,915.208,VALID,0,VALID,89.7505,VALID,0.107441,VALID,16.7413,VALID,125,VALID,0.955078,
2010-12-24, 02:04:05,VALID,915.205,VALID,0,VALID,89.5446,VALID,0.107441,VALID,16.7595,VALID,125,VALID,0.908203,
2010-12-24, 02:05:05,VALID,915.173,VALID,0,VALID,89.5446,VALID,0,VALID,16.7803,VALID,125,VALID,0.725,
2010-12-24, 02:06:05,VALID,915.142,VALID,0,VALID,89.7276,VALID,0.107441,VALID,16.7205,VALID,125,VALID,0.831641,
2010-12-24, 02:07:05,VALID,915.129,VALID,0,VALID,89.1101,VALID,0,VALID,16.7413,VALID,126,VALID,0.958203,
2010-12-24, 02:08:05,VALID,915.121,VALID,0,VALID,88.0962,VALID,0.107441,VALID,16.7413,VALID,126,VALID,1.08516,
2010-12-24, 02:09:05,VALID,915.088,VALID,0,VALID,87.5854,VALID,0,VALID,16.7803,VALID,125,VALID,1.10117,
2010-12-24, 02:10:05,VALID,915.087,VALID,0,VALID,87.0594,VALID,0.107441,VALID,16.8374,VALID,126,VALID,0.789844,
2010-12-24, 02:11:05,VALID,915.056,VALID,0,VALID,87.189,VALID,0,VALID,16.8777,VALID,125,VALID,0.663672,
2010-12-24, 02:12:05,VALID,915.019,VALID,0,VALID,86.3199,VALID,0.107441,VALID,16.8972,VALID,125,VALID,0.776953,
2010-12-24, 02:13:05,VALID,914.982,VALID,0,VALID,85.2298,VALID,0,VALID,16.8972,VALID,125,VALID,0.905078,
2010-12-24, 02:14:05,VALID,914.985,VALID,0,VALID,84.3302,VALID,0.107441,VALID,16.9362,VALID,125,VALID,1.02852,
2010-12-24, 02:15:05,VALID,914.974,VALID,0,VALID,85.1764,VALID,0,VALID,16.9946,VALID,125,VALID,0.596094,
2010-12-24, 02:16:05,VALID,914.988,VALID,0,VALID,86.2285,VALID,0,VALID,16.9738,VALID,125,VALID,0.0738281,
2010-12-24, 02:17:05,VALID,914.977,VALID,0,VALID,86.5486,VALID,0,VALID,16.9556,VALID,125,VALID,0.0617188,
2010-12-24, 02:18:05,VALID,914.964,VALID,0,VALID,87.0442,VALID,0,VALID,16.8777,VALID,125,VALID,0.105078,
2010-12-24, 02:19:05,VALID,914.965,VALID,0,VALID,87.2119,VALID,0,VALID,16.7413,VALID,125,VALID,0.373047,
2010-12-24, 02:20:05,VALID,914.965,VALID,0,VALID,88.3706,VALID,0,VALID,16.5062,VALID,125,VALID,0.342187,
2010-12-24, 02:21:05,VALID,914.947,VALID,0,VALID,89.2931,VALID,0,VALID,16.3114,VALID,125,VALID,0.460156,
2010-12-24, 02:22:05,VALID,914.941,VALID,0,VALID,89.8648,VALID,0,VALID,16.1763,VALID,125,VALID,0.494922,
2010-12-24, 02:23:05,VALID,914.953,VALID,0,VALID,90.185,VALID,0,VALID,16.1178,VALID,125,VALID,0.641406,
2010-12-24, 02:24:05,VALID,914.978,VALID,0,VALID,90.7187,VALID,0,VALID,16.0984,VALID,125,VALID,0.773438,
2010-12-24, 02:25:05,VALID,914.973,VALID,0,VALID,91.0236,VALID,0,VALID,16.0984,VALID,125,VALID,0.765625,
2010-12-24, 02:26:05,VALID,914.983,VALID,0,VALID,91.4352,VALID,0,VALID,16.0789,VALID,125,VALID,0.705469,
2010-12-24, 02:27:05,VALID,914.966,VALID,0,VALID,91.7326,VALID,0,VALID,16.0594,VALID,125,VALID,0.676953,
2010-12-24, 02:28:05,VALID,914.987,VALID,0,VALID,92.0985,VALID,0,VALID,16.0594,VALID,125,VALID,0.790625,
2010-12-24, 02:29:05,VALID,914.951,VALID,0,VALID,92.3501,VALID,0,VALID,16.0387,VALID,125,VALID,0.726172,
2010-12-24, 02:30:05,VALID,914.989,VALID,0,VALID,92.3043,VALID,0,VALID,16.0984,VALID,125,VALID,0.703125,
2010-12-24, 02:31:05,VALID,915.021,VALID,0,VALID,92.1366,VALID,0,VALID,16.1373,VALID,125,VALID,0.771484,
2010-12-24, 02:32:05,VALID,914.994,VALID,0,VALID,91.9155,VALID,0,VALID,16.1763,VALID,125,VALID,0.826953,
2010-12-24, 02:33:05,VALID,914.999,VALID,0,VALID,91.4581,VALID,0,VALID,16.2347,VALID,125,VALID,0.716406,
2010-12-24, 02:34:05,VALID,915.013,VALID,0,VALID,90.9245,VALID,0,VALID,16.2932,VALID,125,VALID,0.963672,
2010-12-24, 02:35:05,VALID,915.008,VALID,0,VALID,90.4595,VALID,0.107441,VALID,16.3516,VALID,125,VALID,1.0375,
2010-12-24, 02:36:05,VALID,915.021,VALID,0,VALID,89.6056,VALID,0,VALID,16.3893,VALID,125,VALID,1.22031,
2010-12-24, 02:37:05,VALID,915.013,VALID,0,VALID,88.3935,VALID,0,VALID,16.488,VALID,125,VALID,1.32969,
2010-12-24, 02:38:05,VALID,915.035,VALID,0,VALID,87.6464,VALID,0,VALID,16.5647,VALID,125,VALID,1.28867,
2010-12-24, 02:39:05,VALID,915.004,VALID,0,VALID,87.0061,VALID,0,VALID,16.6036,VALID,122,VALID,1.41094,
2010-12-24, 02:40:05,VALID,915.004,VALID,0,VALID,86.0074,VALID,0,VALID,16.6828,VALID,122,VALID,1.15703,
2010-12-24, 02:41:05,VALID,914.972,VALID,0,VALID,85.954,VALID,0.107441,VALID,16.7803,VALID,122,VALID,1.12695,
2010-12-24, 02:42:05,VALID,914.969,VALID,0,VALID,86.3657,VALID,0,VALID,16.7608,VALID,122,VALID,0.914063,
2010-12-24, 02:43:05,VALID,914.945,VALID,0,VALID,86.0379,VALID,0,VALID,16.7413,VALID,122,VALID,0.892578,
2010-12-24, 02:44:05,VALID,914.921,VALID,0,VALID,85.6186,VALID,0,VALID,16.7413,VALID,122,VALID,0.9,
2010-12-24, 02:45:05,VALID,914.902,VALID,0,VALID,85.3594,VALID,0,VALID,16.801,VALID,122,VALID,1.19531,
2010-12-24, 02:46:05,VALID,914.882,VALID,0,VALID,85.0316,VALID,0,VALID,16.7998,VALID,122,VALID,0.966797,
2010-12-24, 02:47:05,VALID,914.878,VALID,0,VALID,85.8702,VALID,0,VALID,16.7803,VALID,122,VALID,0.930078,
2010-12-24, 02:48:05,VALID,914.882,VALID,0,VALID,86.1522,VALID,0,VALID,16.6828,VALID,122,VALID,0.783984,
2010-12-24, 02:49:05,VALID,914.845,VALID,0,VALID,85.9693,VALID,0,VALID,16.6049,VALID,122,VALID,1.37812,
2010-12-24, 02:50:05,VALID,914.854,VALID,0,VALID,85.9388,VALID,0,VALID,16.6634,VALID,122,VALID,1.26289,
2010-12-24, 02:51:05,VALID,914.814,VALID,0,VALID,85.9007,VALID,0,VALID,16.6634,VALID,122,VALID,1.38047,
2010-12-24, 02:52:05,VALID,914.817,VALID,0,VALID,86.0531,VALID,0,VALID,16.6646,VALID,122,VALID,1.07422,
2010-12-24, 02:53:05,VALID,914.806,VALID,0,VALID,86.2971,VALID,0,VALID,16.6244,VALID,122,VALID,1.28516,
2010-12-24, 02:54:05,VALID,914.805,VALID,0,VALID,86.5029,VALID,0,VALID,16.5659,VALID,122,VALID,1.25547,
2010-12-24, 02:55:05,VALID,914.782,VALID,0,VALID,86.8764,VALID,0,VALID,16.527,VALID,122,VALID,0.901563,
2010-12-24, 02:56:05,VALID,914.785,VALID,0,VALID,87.6388,VALID,0,VALID,16.449,VALID,122,VALID,0.771484,
2010-12-24, 02:57:05,VALID,914.776,VALID,0,VALID,88.2487,VALID,0,VALID,16.3711,VALID,122,VALID,0.738281,
2010-12-24, 02:58:05,VALID,914.744,VALID,0,VALID,88.2487,VALID,0,VALID,16.3321,VALID,122,VALID,0.792969,
2010-12-24, 02:59:05,VALID,914.757,VALID,0,VALID,88.2258,VALID,0,VALID,16.2932,VALID,122,VALID,0.930859,
2010-12-24, 03:00:05,VALID,914.754,VALID,0,VALID,88.2182,VALID,0,VALID,16.2737,VALID,122,VALID,0.887891,
2010-12-24, 03:01:05,VALID,914.715,VALID,0,VALID,88.0962,VALID,0.107441,VALID,16.2737,VALID,122,VALID,0.704297,
2010-12-24, 03:02:05,VALID,914.745,VALID,0,VALID,88.1267,VALID,0,VALID,16.2737,VALID,122,VALID,0.832031,
2010-12-24, 03:03:05,VALID,914.759,VALID,0,VALID,87.7455,VALID,0,VALID,16.2737,VALID,122,VALID,0.679297,
2010-12-24, 03:04:05,VALID,914.773,VALID,0,VALID,87.1738,VALID,0,VALID,16.3321,VALID,122,VALID,0.867188,
2010-12-24, 03:05:05,VALID,914.79,VALID,0,VALID,87.3186,VALID,0,VALID,16.3321,VALID,122,VALID,0.752344,
2010-12-24, 03:06:05,VALID,914.824,VALID,0,VALID,87.4558,VALID,0,VALID,16.3321,VALID,122,VALID,0.598828,
2010-12-24, 03:07:05,VALID,914.8,VALID,0,VALID,87.2424,VALID,0.107441,VALID,16.3127,VALID,122,VALID,1.10273,
2010-12-24, 03:08:05,VALID,914.787,VALID,0,VALID,87.311,VALID,0,VALID,16.3321,VALID,122,VALID,0.668359,
2010-12-24, 03:09:05,VALID,914.747,VALID,0,VALID,87.2881,VALID,0,VALID,16.3516,VALID,122,VALID,0.827734,
2010-12-24, 03:10:05,VALID,914.749,VALID,0,VALID,86.846,VALID,0,VALID,16.3711,VALID,122,VALID,1.00625,
2010-12-24, 03:11:05,VALID,914.689,VALID,0,VALID,86.3733,VALID,0,VALID,16.527,VALID,122,VALID,0.989453,
2010-12-24, 03:12:05,VALID,914.695,VALID,0,VALID,86.0074,VALID,0,VALID,16.5854,VALID,122,VALID,0.766797,
2010-12-24, 03:13:05,VALID,914.702,VALID,0,VALID,85.9769,VALID,0,VALID,16.6049,VALID,122,VALID,0.703516,
2010-12-24, 03:14:05,VALID,914.694,VALID,0,VALID,85.1231,VALID,0,VALID,16.6426,VALID,122,VALID,0.85,
2010-12-24, 03:15:05,VALID,914.726,VALID,0,VALID,85.4966,VALID,0,VALID,16.7608,VALID,122,VALID,1.15352,
2010-12-24, 03:16:05,VALID,914.722,VALID,0,VALID,85.1002,VALID,0.107441,VALID,16.8387,VALID,122,VALID,0.672656,
2010-12-24, 03:17:05,VALID,914.705,VALID,0,VALID,85.5195,VALID,0,VALID,16.7413,VALID,122,VALID,0.997656,
2010-12-24, 03:18:05,VALID,914.688,VALID,0,VALID,86.3657,VALID,0,VALID,16.6634,VALID,122,VALID,1.12188,
2010-12-24, 03:19:05,VALID,914.673,VALID,0,VALID,87.1051,VALID,0,VALID,16.5659,VALID,122,VALID,1.15156,
2010-12-24, 03:20:05,VALID,914.667,VALID,0,VALID,87.6769,VALID,0,VALID,16.4893,VALID,122,VALID,1.06016,
2010-12-24, 03:21:05,VALID,914.685,VALID,0,VALID,88.2715,VALID,0.107441,VALID,16.4101,VALID,122,VALID,0.974609,
2010-12-24, 03:22:05,VALID,914.657,VALID,0,VALID,88.6298,VALID,0,VALID,16.3918,VALID,122,VALID,0.641406,
2010-12-24, 03:23:05,VALID,914.642,VALID,0,VALID,88.6984,VALID,0,VALID,16.3334,VALID,122,VALID,0.501172,
2010-12-24, 03:24:05,VALID,914.629,VALID,0,VALID,89.1635,VALID,0,VALID,16.2932,VALID,122,VALID,0.744531,
2010-12-24, 03:25:05,VALID,914.639,VALID,0,VALID,89.011,VALID,0,VALID,16.2737,VALID,122,VALID,0.782422,
2010-12-24, 03:26:05,VALID,914.642,VALID,0,VALID,89.0491,VALID,0.107441,VALID,16.253,VALID,122,VALID,0.964844,
2010-12-24, 03:27:05,VALID,914.652,VALID,0,VALID,89.1635,VALID,0,VALID,16.2153,VALID,122,VALID,0.577344,
2010-12-24, 03:28:05,VALID,914.626,VALID,0,VALID,89.1406,VALID,0,VALID,16.1361,VALID,122,VALID,0.6875,
2010-12-24, 03:29:05,VALID,914.641,VALID,0,VALID,89.3998,VALID,0,VALID,16.0984,VALID,122,VALID,0.722266,
2010-12-24, 03:30:05,VALID,914.647,VALID,0,VALID,89.4074,VALID,0,VALID,16.0594,VALID,122,VALID,0.686719,
2010-12-24, 03:31:05,VALID,914.628,VALID,0,VALID,89.3769,VALID,0,VALID,16.0789,VALID,122,VALID,0.740234,
2010-12-24, 03:32:05,VALID,914.606,VALID,0,VALID,89.2321,VALID,0,VALID,16.0594,VALID,122,VALID,0.825391,
2010-12-24, 03:33:05,VALID,914.617,VALID,0,VALID,89.3769,VALID,0,VALID,16.001,VALID,122,VALID,1.01484,
2010-12-24, 03:34:05,VALID,914.612,VALID,0,VALID,89.5675,VALID,0.107441,VALID,15.9413,VALID,122,VALID,0.661719,
2010-12-24, 03:35:05,VALID,914.584,VALID,0,VALID,89.8801,VALID,0,VALID,15.8829,VALID,122,VALID,0.637891,
2010-12-24, 03:36:05,VALID,914.591,VALID,0,VALID,90.6348,VALID,0,VALID,15.8841,VALID,122,VALID,0.855469,
2010-12-24, 03:37:05,VALID,914.566,VALID,0,VALID,91.0465,VALID,0,VALID,15.8829,VALID,122,VALID,0.991406,
2010-12-24, 03:38:05,VALID,914.586,VALID,0,VALID,91.3438,VALID,0,VALID,15.9425,VALID,122,VALID,0.937109,
2010-12-24, 03:39:05,VALID,914.569,VALID,0,VALID,91.0465,VALID,0,VALID,15.962,VALID,122,VALID,0.514844,
2010-12-24, 03:40:05,VALID,914.558,VALID,0,VALID,90.7796,VALID,0,VALID,15.9815,VALID,122,VALID,0.662891,
2010-12-24, 03:41:05,VALID,914.564,VALID,0,VALID,90.6119,VALID,0,VALID,15.9815,VALID,122,VALID,1.09844,
2010-12-24, 03:42:05,VALID,914.548,VALID,0,VALID,90.1393,VALID,0,VALID,16.1178,VALID,122,VALID,1.38477,